This is the latest recevied weather packets stored in our database for station/object WA7CUG. If no packets are shown the sender has not sent any weather packets the latest 10 day(s).
| Time | Temp. | Humidity | Pressure | Rain* | Wind** | Luminosity | Snow |
|---|---|---|---|---|---|---|---|
| 1777791818 | 13.33° C | 64% | 1016 hPa | 0 mm | - | 0 W/m² | - |
| 1777791515 | 13.33° C | 71% | 1016 hPa | 0 mm | - | 0 W/m² | - |
| 1777791212 | 14.44° C | 63% | 1015.7 hPa | 0 mm | - | 0 W/m² | - |
| 1777790910 | 13.33° C | 66% | 1015.9 hPa | 0 mm | - | 0 W/m² | - |
| 1777790607 | 12.78° C | 68% | 1015.7 hPa | 0 mm | - | 0 W/m² | - |
| 1777790303 | 13.89° C | 64% | 1015.7 hPa | 0 mm | - | 0 W/m² | - |
| 1777789996 | 13.33° C | 67% | 1015.8 hPa | 0 mm | - | 0 W/m² | - |
| 1777789694 | 14.44° C | 64% | 1015.5 hPa | 0 mm | - | 0 W/m² | - |
| 1777789393 | 13.89° C | 65% | 1015.6 hPa | 0 mm | - | 0 W/m² | - |
| 1777789090 | 13.33° C | 65% | 1015.6 hPa | 0 mm | - | 0 W/m² | - |
| 1777788786 | 14.44° C | 65% | 1015.5 hPa | 0 mm | - | 0 W/m² | - |
| 1777788483 | 15° C | 60% | 1015.2 hPa | 0 mm | - | 0 W/m² | - |
| 1777788176 | 15° C | 56% | 1015.3 hPa | 0 mm | - | 0 W/m² | - |
| 1777787871 | 14.44° C | 60% | 1015.2 hPa | 0 mm | - | 0 W/m² | - |
| 1777787563 | 14.44° C | 62% | 1015 hPa | 0 mm | - | 0 W/m² | - |
| 1777787258 | 15° C | 57% | 1015.4 hPa | 0 mm | - | 0 W/m² | - |
| 1777786955 | 15° C | 62% | 1015.2 hPa | 0 mm | - | 0 W/m² | - |
| 1777786653 | 15.56° C | 58% | 1015.4 hPa | 0 mm | - | 0 W/m² | - |
| 1777786351 | 15.56° C | 57% | 1015.4 hPa | 0 mm | - | 0 W/m² | - |
| 1777786047 | 15° C | 58% | 1015.2 hPa | 0 mm | - | 0 W/m² | - |
| 1777785744 | 16.67° C | 59% | 1015.3 hPa | 0 mm | - | 0 W/m² | - |
| 1777785439 | 16.67° C | 52% | 1015.3 hPa | 0 mm | - | 0 W/m² | - |
| 1777785137 | 16.11° C | 54% | 1015.3 hPa | 0 mm | - | 0 W/m² | - |
| 1777784833 | 17.22° C | 60% | 1015.2 hPa | 0 mm | - | 0 W/m² | - |
| 1777784530 | 17.78° C | 49% | 1015.3 hPa | 0 mm | - | 0 W/m² | - |
* Rain latest hour (hover to see other rain measurements)
** Current wind speed in m/s (hover to see current wind gust speed)